Regional Weather Roundup
Issued by NWS

Home | Current Version | Previous Version | Text Only | Print | Product List | Glossary On
Versions: 1 2 3 4 5 6 7 8 9 10 11 12 13 14 15 16 17 18 19 20 21 22 23 24 25 26 27 28 29 30 31 32 33 34 35 36 37 38 39 40 41 42 43 44 45 46 47 48 49 50
000
ASUS43 KDTX 302010
RWRMI
MICHIGAN HOURLY REGIONAL WEATHER ROUNDUP
NATIONAL WEATHER SERVICE DETROIT/PONTIAC MI
400 PM EDT THU JUL 30 2015

NOTE: "FAIR" INDICATES FEW OR NO CLOUDS BELOW 12,000 FEET WITH NO
SIGNIFICANT WEATHER AND/OR OBSTRUCTION TO VISIBILITY.

MIZ047>049-052>055-059>063-066>070-074>076-081>083-302100-
SOUTHEAST LOWER MICHIGAN

CITY           SKY/WX    TMP DP  RH WIND       PRES   REMARKS
ADRIAN         SUNNY     82  56  40 NW15      29.99F
ALMA           SUNNY     83  52  33 W21       29.94S
ANN ARBOR      MOSUNNY   84  57  39 W21       29.96F
BAD AXE        MOSUNNY   81  54  39 W18       29.89S
CARO           SUNNY     84  56  37 W12G23    29.90S
DETROIT CITY   SUNNY     85  54  34 W18G24    29.92F
DETROIT        MOSUNNY   86  55  34 W14G22    29.95S
FLINT          MOSUNNY   86  54  33 W20G25    29.93F
GROSSE ILE     SUNNY     86  54  32 W13G20    29.94S
HILLSDALE      SUNNY     83  52  34 W14G20    30.01S
HOWELL         MOSUNNY   85  50  30 W10G20    29.95F

CITY           SKY/WX    TMP DP  RH WIND       PRES   REMARKS
JACKSON        MOSUNNY   82  58  43 W15G22    29.98F
LAMBERTVILLE   MOSUNNY   84  57  38 W12G17    29.98F
LANSING        SUNNY     85  55  35 W23G29    29.97S
LAPEER         FAIR      84  55  37 W10G21    29.92F
MASON          MOSUNNY   82  54  38 W17G24    29.97S
MONROE         SUNNY     84  58  41 W15G22    29.95F
MT. CLEMENS    MOSUNNY   85  56  36 W15G23    29.90F
PONTIAC        MOSUNNY   84  56  38 W16G25    29.94F
PORT HOPE        N/A     84  56  38 W10G18    29.85S
PORT HURON     SUNNY     82  57  42 W7        29.91S
TRI CITIES     SUNNY     86  52  30 W17       29.90F
MIDLAND        FAIR      86  50  28 W12G23    29.89S
TROY           SUNNY     86  53  32 SW15      29.95S
SAGINAW HB     MOSUNNY   84  54  34 W15G23    29.89F
$$
MIZ043>046-050>051-056>058-064>065-071>073-077>080-302100-
SOUTHWEST LOWER MICHIGAN

CITY           SKY/WX    TMP DP  RH WIND       PRES   REMARKS
BATTLE CREEK   MOSUNNY   84  56  38 NW17G30   30.02S
BENTON HARBOR    N/A     84  59  42 W14       30.03F
BIG RAPIDS     MOSUNNY   82  48  30 NW15G23   29.94F
COLDWATER      SUNNY     82  52  34 W14       30.01F
FREMONT        FAIR      83  52  34 W14G26    29.97S
HOLLAND        SUNNY     83  60  45 W13G18    30.01F
GRAND RAPIDS   MOSUNNY   83  56  39 W22G31    29.99S
IONIA          FAIR      85  53  33 W16G25    29.96S
KALAMAZOO      SUNNY     84  57  39 W18G28    30.02S
LUDINGTON      SUNNY     81  65  57 W9G16     29.96S
MARSHALL       SUNNY     83  55  38 NW13G22   29.99F
MOUNT PLEASANT SUNNY     87  49  26 W15G31    29.91S
MUSKEGON       MOSUNNY   83  15   8 W16       29.99F
SOUTH HAVEN    SUNNY     81  58  46 W12       30.02F
$$
MIZ016>042-302100-
NORTHERN LOWER MICHIGAN

CITY           SKY/WX    TMP DP  RH WIND       PRES   REMARKS
ALPENA         MOSUNNY   82  54  37 NW12G21   29.84S
BEAVER ISLAND  SUNNY     78  56  47 NW8       29.87S
BELLAIRE       SUNNY     81  53  36 W7G21     29.89S
CADILLAC       MOSUNNY   83  53  35 W17G28    29.94S
CHARLEVOIX     SUNNY     81  57  43 W18G30    29.90S
FRANKFORT      SUNNY     79  63  58 SW9G17    29.92F
GAYLORD        MOSUNNY   79  51  37 W23G35    29.90R
GRAYLING       SUNNY     82  52  35 W15G29    29.91S
HARBOR SPRINGS PTSUNNY   77  60  55 W12G21    29.86S
HOUGHTON LAKE  SUNNY     82  51  34 W18G29    29.91R
MANISTEE       SUNNY     79  59  50 W15       29.94S
OSCODA         MOSUNNY   89  47  23 W22G29    29.82S
PELLSTON       PTSUNNY   80  57  45 W18G24    29.85F
ROGERS CITY    CLOUDY    75  59  56 NW9       29.85S
TRAVERSE CITY  MOSUNNY   85  53  33 W16G29    29.88F
$$
MIZ007>008-015-302100-
EASTERN UPPER MICHIGAN

CITY           SKY/WX    TMP DP  RH WIND       PRES   REMARKS
KINROSS        PTSUNNY   72  54  53 NW18G29   29.84F
MACKINAC ISLAN CLOUDY    73  55  52 W20       29.85S
MUNISING         N/A     73  56  54 N15G23    29.88S
$$
MIZ004>006-011>014-085-302100-
CENTRAL UPPER MICHIGAN

CITY           SKY/WX    TMP DP  RH WIND       PRES   REMARKS
MANISTIQUE     MOSUNNY   82  48  30 NW15G26   29.86S
ESCANABA       MOSUNNY   82  48  30 W21G32    29.86S
MENOMINEE      MOSUNNY   82  52  34 NW8G16    29.89F
SAWYER-GWINN   MOSUNNY   79  46  31 NW17G25   29.89S
$$
MIZ001>003-009>011-084-302100-
WESTERN UPPER MICHIGAN

CITY           SKY/WX    TMP DP  RH WIND       PRES   REMARKS
IRON MOUNTAIN  SUNNY     83  48  29 NW17G24   29.91S
HOUGHTON       SUNNY     76  51  41 W22       29.88S
COPPER HARBOR    N/A     78  54  43 NW10G22   29.84S
IRONWOOD       MOSUNNY   72  57  60 NW21G48   29.93R THUNDER
$$

ABBREVIATIONS USED IN REMARKS
   TC - TEMPERATURE IN CELSIUS
  WCI - WIND CHILL INDEX
   HX - HEAT INDEX
  VSB - VISIBILITY




USA.gov is the U.S. government's official web portal to all federal, state and local government web resources and services.